Temperature
22 22 21 21 23 25 27 29 30 30 29 29 29 29 28 27 26 23 22 22 21 21 21 20 20 20 20 19 19 19 19 19 19 19 19 19 19 19 19 19 19 19 19 19 19 19 19 18 18
22 21 22 23 24 26 28 29 30 30 29 29 29 28 27 26 25 23 22 22 22 21 21 20 20 20 20 19 19 19 19 19 19 19 19 19 19 19 19 19 19 19 19 19 19 19 18 18 18
22 22 23 24 26 27 28 30 30 30 29 29 28 27 26 25 24 23 22 22 22 21 21 21 20 20 20 20 19 19 19 19 19 19 19 19 19 19 19 19 19 19 19 19 18 18 18 18 18
22 23 24 26 28 29 30 30 31 30 30 29 28 27 25 24 24 23 23 22 22 21 21 21 21 20 20 20 19 19 19 19 19 19 19 19 19 19 19 19 19 19 19 19 18 18 18 18 18
24 25 25 27 29 30 31 31 30 30 30 29 28 26 25 24 24 23 23 23 22 21 21 21 21 20 20 20 19 19 19 19 19 19 19 19 19 19 19 19 19 19 19 19 18 18 18 18 18
25 26 27 28 29 30 31 31 30 30 29 29 28 26 24 24 24 23 23 23 22 22 21 21 21 20 20 20 20 19 19 19 19 19 19 19 19 19 19 19 19 19 19 19 19 18 18 18 18
26 27 28 29 30 30 31 31 31 30 30 29 28 26 24 24 24 23 23 23 22 22 21 21 21 20 20 20 20 20 19 19 19 19 19 19 19 19 19 19 19 19 19 18 18 18 18 18 18
28 28 29 30 30 30 31 31 30 30 30 29 28 27 25 24 24 24 23 23 23 22 21 21 21 20 20 20 20 20 19 19 19 19 19 19 19 19 19 19 19 19 19 19 18 18 18 18 18
29 28 29 30 31 31 32 31 31 30 29 28 27 26 25 24 24 23 23 23 22 22 21 21 21 20 20 20 20 20 19 19 19 19 19 19 19 19 19 19 19 19 19 18 18 18 18 18 18
30 29 30 32 32 32 32 32 31 30 29 28 27 26 25 24 24 24 23 23 22 22 21 21 20 20 20 20 20 19 19 19 19 19 19 19 19 19 18 19 19 19 18 18 18 18 18 18 18
31 31 32 32 32 32 32 31 31 30 29 28 27 26 25 24 24 24 23 22 22 22 21 21 21 20 20 20 20 20 19 19 19 19 19 19 19 18 18 18 18 18 18 18 18 18 18 18 18
32 32 32 32 32 32 32 31 31 30 30 28 27 26 25 25 24 24 23 22 22 21 21 21 20 20 20 20 20 20 19 19 19 19 19 19 19 19 19 19 18 18 18 18 18 18 18 18 18
32 32 32 32 32 32 32 31 31 30 29 28 27 26 25 25 25 24 23 22 22 21 21 20 20 20 20 20 20 19 19 19 19 19 19 19 19 19 19 19 19 18 18 18 18 18 18 18 18
32 32 33 33 32 32 32 32 31 30 29 28 27 26 26 25 25 24 23 22 22 21 21 20 20 20 20 20 20 20 19 19 19 19 19 19 19 19 19 19 19 19 18 18 18 18 18 18 18
32 32 32 33 33 32 31 31 31 30 29 28 27 27 26 26 25 24 23 22 22 21 21 20 20 20 20 19 19 19 19 19 19 19 19 19 19 19 19 19 19 19 18 18 18 18 18 19 19
32 31 31 33 33 32 31 30 31 30 29 29 28 27 26 26 25 24 23 22 22 21 21 20 20 20 20 19 19 19 19 19 19 19 19 19 19 19 19 19 19 19 19 19 18 18 18 18 19
31 30 31 32 34 33 32 30 31 31 30 29 28 28 27 26 25 24 23 22 22 21 21 20 20 19 19 19 19 19 19 19 19 19 19 19 19 19 19 19 19 19 19 19 18 18 18 18 19
31 31 31 32 33 33 32 31 31 31 31 30 29 28 27 26 25 24 23 22 21 21 20 20 20 20 19 19 19 19 19 19 19 19 19 19 19 19 19 19 19 19 18 19 19 19 18 18 19
32 32 31 32 34 33 32 32 32 31 31 30 29 29 28 27 26 24 24 23 22 21 20 20 20 20 19 19 19 19 19 19 19 19 19 19 19 18 19 19 19 18 18 18 18 18 18 18 19
32 31 32 32 33 33 32 32 32 32 31 31 30 29 28 27 26 25 24 23 22 21 21 20 20 20 19 19 19 19 19 19 19 19 19 18 18 18 18 19 18 18 18 18 18 18 18 18 18
32 32 31 32 32 33 32 31 31 32 31 31 30 30 29 28 26 25 24 23 22 21 21 20 20 20 19 19 19 19 19 19 19 19 18 18 18 18 18 18 18 18 18 18 18 18 18 18 18
32 33 33 32 31 31 31 29 30 31 31 31 30 30 29 28 27 25 24 24 23 22 21 20 20 20 19 19 19 19 19 19 19 18 18 18 18 18 18 18 18 18 18 18 18 18 18 18 18
33 34 33 33 32 31 31 30 30 31 30 31 31 30 29 28 27 26 25 24 23 22 21 20 20 20 20 19 19 19 19 19 19 18 18 18 18 18 18 18 18 18 18 18 17 17 17 17 17
34 33 33 32 32 30 31 30 29 30 30 30 30 29 28 28 27 26 25 24 23 23 21 21 20 20 20 19 19 19 19 19 19 18 18 18 18 18 18 18 18 18 18 17 17 17 17 17 17
33 32 30 30 30 30 32 31 30 31 31 31 30 29 28 28 27 26 25 24 23 22 22 21 20 20 20 19 19 19 19 19 18 18 18 18 18 18 18 18 18 18 17 17 17 17 17 17 17
33 32 30 29 29 30 31 30 30 31 31 31 30 29 28 28 27 26 25 24 23 22 22 21 20 20 19 19 19 19 19 18 18 18 18 18 18 18 18 18 18 17 17 17 17 17 17 17 17
32 32 32 31 31 30 30 30 31 31 31 31 30 29 29 28 27 26 25 24 23 22 21 21 20 20 19 19 19 19 19 18 18 18 18 18 18 17 17 17 17 17 17 17 17 16 16 16 17
34 33 32 31 29 28 29 29 29 29 30 30 30 29 29 28 27 26 25 24 23 23 22 21 20 20 19 19 19 19 19 18 18 18 18 18 18 18 17 17 17 17 17 17 16 16 16 16 16
33 33 32 31 30 29 28 29 30 29 30 30 30 29 28 28 27 26 25 24 23 23 22 21 20 20 19 19 19 19 18 18 18 18 18 18 17 17 17 17 17 17 17 16 16 16 16 16 16
34 33 33 31 29 30 29 29 31 30 31 30 29 28 27 27 26 25 24 24 23 23 22 21 21 20 20 19 19 19 18 18 18 17 17 17 17 17 17 17 17 16 16 16 16 16 16 15 15
Wind_Speed
10 11 8 4 3 1 8 12 13 13 13 12 13 13 16 16 11 9 6 9 11 12 12 12 10 10 9 8 7 7 7 7 7 6 6 6 6 5 6 6 6 5 5 6 6 6 6 6 7
9 9 6 3 1 4 9 11 13 13 10 10 14 15 16 15 13 9 8 8 11 11 12 12 11 10 9 8 8 8 7 7 7 6 6 7 7 6 7 7 6 6 6 5 5 5 5 6 6
10 10 4 2 3 7 9 11 11 11 10 11 14 15 12 10 11 8 8 9 11 12 13 13 11 10 9 8 8 7 7 7 7 8 8 8 7 7 7 6 6 6 6 5 5 5 5 5 6
6 4 3 1 7 8 9 10 9 11 11 11 12 11 11 10 9 9 9 9 10 11 12 13 12 10 9 8 8 7 7 7 8 8 8 8 7 7 6 6 5 5 5 5 4 5 5 5 6
5 3 3 3 8 9 9 9 10 12 11 12 14 13 11 11 11 10 9 9 10 11 11 12 12 11 9 9 8 7 7 7 8 8 7 7 6 5 6 6 5 5 4 4 4 4 4 5 5
4 3 2 5 9 10 9 9 11 11 10 11 12 13 10 9 9 9 9 9 9 10 10 12 13 12 10 9 9 7 7 7 7 7 6 6 5 5 5 5 5 4 3 3 3 4 4 4 5
5 4 3 5 9 10 9 9 10 10 10 10 10 11 9 8 8 8 9 8 8 9 8 10 11 10 10 9 9 7 6 6 6 6 5 4 4 4 4 4 4 3 2 2 3 3 4 5 6
4 4 4 6 8 10 8 9 10 10 11 11 9 9 9 8 8 8 8 7 7 8 7 6 8 9 8 8 9 8 6 5 6 5 3 3 4 5 5 4 4 3 3 2 3 4 5 6 7
4 2 3 6 7 8 8 9 10 11 12 12 13 13 12 10 10 8 8 7 7 7 6 6 6 5 5 6 8 9 7 5 5 5 5 3 3 4 5 4 5 5 3 3 4 5 6 7 7
1 2 5 7 8 8 8 8 8 9 10 12 13 14 13 11 9 7 7 7 7 6 6 6 6 5 3 3 6 5 5 5 4 3 3 4 3 2 3 6 6 5 5 5 6 7 7 7 6
1 2 5 7 7 8 9 9 8 9 9 10 11 13 11 10 8 7 8 7 6 6 6 6 6 5 4 4 3 2 3 4 4 3 2 1 1 1 2 3 5 5 5 5 5 6 6 4 4
2 4 4 6 6 7 8 9 9 10 10 11 12 12 10 9 8 7 7 7 7 6 6 7 7 6 5 4 2 2 2 2 3 3 2 2 1 1 1 0 1 2 2 2 2 2 2 2 3
2 2 3 3 4 6 7 8 9 10 11 12 11 11 9 8 8 7 7 7 7 5 6 7 6 5 4 3 2 2 2 2 3 3 2 2 1 1 1 1 1 1 1 1 1 1 1 2 2
2 2 1 2 3 5 5 7 8 9 10 10 10 8 8 7 8 7 7 7 6 5 5 6 6 6 4 3 1 1 1 2 2 3 3 2 2 1 1 1 1 1 1 0 1 2 1 2 2
0 2 2 2 4 4 3 5 6 9 10 9 8 7 7 7 7 7 7 7 7 6 5 5 6 6 4 2 0 1 1 2 2 3 3 2 2 1 1 1 1 1 0 1 1 1 1 2 1
3 4 3 2 4 5 3 3 7 8 9 8 8 7 7 6 7 6 7 6 7 6 5 3 4 6 4 2 2 2 2 2 2 2 2 3 2 2 1 1 1 1 0 0 1 1 1 1 1
4 4 4 2 3 5 3 4 7 8 9 8 8 8 7 7 6 6 6 7 7 6 5 5 4 5 3 2 1 1 2 2 1 2 2 2 2 3 2 1 2 2 1 1 2 2 2 2 2
2 3 2 1 1 2 2 3 6 6 8 8 8 8 8 8 7 7 7 7 7 7 6 5 4 3 2 2 1 1 1 1 1 2 2 2 2 2 2 2 2 2 2 3 3 3 2 2 2
5 4 2 3 2 2 1 2 4 6 6 7 7 7 7 8 8 8 8 8 8 7 6 5 4 3 1 1 1 0 0 1 1 2 2 2 2 3 2 3 3 3 2 2 2 2 3 3 2
5 5 4 3 4 3 2 1 3 5 6 6 7 7 7 8 9 8 7 8 8 8 7 6 4 3 2 1 1 1 0 0 2 2 2 1 2 2 3 3 3 3 2 3 3 2 3 3 2
6 4 5 5 6 6 4 3 4 5 5 6 6 6 7 7 8 9 8 7 8 8 7 6 5 4 2 1 1 0 1 1 1 2 1 1 2 2 2 2 2 2 2 2 2 2 2 3 3
6 4 7 7 8 6 5 3 2 6 5 6 6 6 6 7 7 8 8 7 7 8 8 7 6 4 3 2 1 1 1 1 1 1 1 1 2 1 1 2 2 2 2 2 2 2 2 3 3
6 6 9 10 8 8 6 3 2 6 5 4 5 5 6 6 7 8 8 7 7 8 8 8 6 5 3 2 1 1 1 1 1 1 1 0 1 1 1 1 1 2 2 2 3 3 3 2 3
7 8 10 10 8 8 7 3 2 3 4 4 5 6 6 5 6 6 7 7 7 8 8 9 8 6 4 3 2 2 0 1 1 1 1 0 1 1 2 2 2 2 2 3 3 2 3 3 3
7 7 6 6 5 5 4 2 3 5 5 5 5 6 6 6 5 6 6 7 6 7 8 8 8 7 5 4 2 2 1 0 0 1 1 1 1 1 2 2 2 2 2 2 3 2 3 3 3
7 7 6 7 7 6 4 0 4 5 6 7 7 7 6 6 7 7 7 7 6 6 7 7 8 7 6 5 3 2 1 1 1 1 2 1 1 1 1 1 1 2 2 3 3 2 2 2 3
7 7 8 9 9 6 4 1 5 6 6 7 6 6 6 6 6 7 7 7 7 6 7 7 6 6 6 5 4 3 2 1 1 1 1 2 2 1 2 1 1 1 1 2 2 2 2 2 3
8 8 7 6 6 6 4 3 1 3 4 5 5 5 5 6 6 7 6 6 6 6 6 6 7 6 6 5 5 4 3 2 2 1 0 1 2 2 1 1 1 1 1 2 3 2 2 3 3
8 8 6 5 6 6 6 1 3 2 4 4 5 6 6 5 6 6 7 6 5 6 7 6 6 6 5 5 5 3 3 3 2 1 0 0 1 1 1 2 2 1 2 2 2 3 2 2 3
10 9 8 6 6 8 7 1 4 2 4 6 5 6 6 6 6 6 6 6 4 4 4 5 4 6 6 5 4 3 2 2 2 1 1 0 0 1 1 1 2 2 2 2 3 4 4 3 3
Wind_Direction
197 209 218 244 264 266 54 62 61 56 56 54 52 57 57 51 57 83 93 95 101 104 111 104 94 90 87 89 91 93 94 95 100 106 111 111 107 101 106 109 111 124 138 146 153 156 163 171 175
225 223 230 258 292 63 63 62 65 64 63 66 66 65 64 61 69 90 92 97 104 104 106 102 101 94 90 91 92 91 90 91 93 97 106 104 101 96 99 104 108 113 124 137 146 158 164 172 176
246 254 259 244 39 59 66 64 68 75 68 67 71 62 62 66 74 91 102 106 98 97 102 109 109 103 100 99 97 92 90 88 90 90 100 102 98 96 95 96 102 109 116 127 140 152 162 171 177
242 244 251 262 63 64 70 72 73 79 71 66 76 71 66 70 85 95 103 106 106 104 105 115 115 110 107 108 103 100 92 88 92 94 98 100 96 98 101 102 104 107 113 124 136 150 163 172 180
245 262 261 78 75 70 68 73 70 71 70 72 79 86 79 76 89 99 102 97 101 104 110 120 121 117 114 107 101 97 92 89 92 95 95 97 99 103 111 115 113 111 112 126 146 163 173 180 188
264 280 286 74 81 77 71 73 74 73 80 87 90 91 85 95 98 99 93 90 94 104 113 126 130 128 129 122 114 107 99 94 96 99 101 104 108 110 119 122 120 117 119 139 160 177 181 195 204
267 298 331 64 80 80 80 80 80 80 73 75 88 92 99 100 99 100 90 90 94 100 110 130 138 136 137 131 129 124 116 115 115 113 112 119 127 131 138 132 129 137 150 163 179 189 204 216 219
266 308 356 54 75 78 78 79 78 82 77 74 82 92 106 115 112 105 96 91 90 94 98 111 127 139 143 143 145 144 140 138 139 138 141 148 146 163 173 169 164 168 181 198 204 210 220 222 225
262 314 20 55 67 81 86 87 90 85 87 77 72 88 112 117 107 103 97 85 76 81 92 97 97 115 129 134 145 156 158 160 160 168 177 180 195 185 179 171 168 179 196 211 218 223 224 227 229
268 36 41 52 64 76 79 78 92 96 94 90 91 100 113 114 115 114 102 93 85 81 82 87 89 89 102 105 129 153 148 153 166 161 183 185 199 209 151 161 172 188 209 221 231 236 233 230 228
105 64 55 52 63 77 79 78 78 89 94 102 111 115 116 119 114 106 95 93 91 83 76 86 82 78 73 76 100 108 118 135 148 145 153 158 175 202 148 171 188 201 215 228 227 230 236 234 231
66 37 47 56 57 73 82 83 77 76 85 101 108 115 119 119 112 108 105 104 100 89 79 73 79 74 61 51 55 81 92 117 112 109 113 97 81 37 43 72 184 199 225 232 248 257 264 268 249
48 59 55 72 85 86 92 91 91 88 93 104 111 114 122 124 119 112 109 105 103 98 89 84 82 75 76 61 6 76 74 83 101 112 76 67 68 40 49 0 307 239 221 206 250 276 279 290 269
47 15 70 106 100 96 101 102 104 106 110 112 114 121 125 125 124 119 111 111 113 107 101 100 100 90 82 90 55 50 87 98 95 100 83 54 58 32 30 339 323 307 262 242 259 248 245 256 280
69 251 235 203 143 125 111 108 109 120 123 124 126 129 128 124 123 121 121 125 121 115 102 112 118 105 95 84 65 104 95 93 84 90 82 63 54 6 353 333 309 313 293 231 254 270 273 260 267
256 255 247 206 158 147 173 125 125 137 139 139 142 140 135 128 125 121 117 117 114 115 111 97 99 105 106 86 36 38 54 70 76 91 89 73 38 357 353 14 359 325 319 338 291 317 297 311 319
234 249 245 195 169 154 186 142 143 160 150 151 152 152 149 146 142 135 131 127 118 115 115 97 77 89 94 92 70 72 81 64 57 69 74 59 17 9 351 27 4 319 19 6 335 18 336 328 327
241 269 265 224 158 163 187 144 156 169 161 158 159 161 159 154 150 145 144 136 130 128 122 115 105 96 109 103 73 40 87 104 87 72 78 56 2 14 1 0 5 343 25 22 13 6 335 308 303
302 307 308 305 302 263 246 184 171 166 166 158 163 161 161 155 152 149 150 144 139 137 133 130 124 113 111 88 105 184 76 100 106 106 91 67 18 10 17 9 0 1 30 20 360 354 331 322 310
277 280 282 280 285 271 262 234 201 176 168 159 156 157 154 149 146 145 153 154 150 147 144 139 144 141 144 138 193 183 74 328 110 77 89 61 42 5 16 25 354 10 20 13 0 353 335 323 332
277 287 290 287 289 267 250 240 202 174 159 154 156 151 151 157 157 157 159 162 158 152 152 152 145 147 151 168 196 216 131 44 73 110 101 99 74 53 6 8 4 355 19 13 333 357 332 324 321
281 285 272 269 277 277 264 265 190 161 156 155 154 152 151 153 152 157 159 162 164 157 155 143 142 145 155 163 223 198 134 99 73 103 103 99 80 65 35 20 359 343 358 4 336 5 326 318 323
296 287 279 279 275 278 250 250 195 167 155 149 147 147 150 150 149 153 158 159 163 159 155 148 143 147 150 165 185 202 59 60 68 64 57 95 95 65 44 61 360 351 3 358 355 358 338 335 341
282 282 277 274 269 264 255 246 206 174 148 139 135 128 131 137 139 144 149 150 160 156 155 152 145 151 161 175 176 162 150 11 46 44 3 301 97 47 30 44 24 16 2 2 354 337 345 351 348
271 285 289 285 266 265 262 221 141 137 135 130 127 131 133 132 131 133 132 135 145 149 151 147 147 156 165 167 167 168 188 192 349 304 264 282 73 62 34 36 27 16 7 356 341 343 345 349 333
265 273 285 299 301 298 297 169 112 121 120 121 126 124 123 124 124 129 130 133 135 141 143 142 147 157 160 158 159 155 168 235 268 297 307 348 21 76 64 60 30 15 2 354 343 348 344 343 325
266 272 279 280 286 293 313 33 121 115 117 118 117 120 119 121 120 126 127 128 136 141 144 148 151 157 161 164 163 162 179 231 303 318 318 352 354 26 62 71 46 352 359 347 337 343 347 335 324
255 277 293 295 303 299 294 274 157 148 131 128 126 123 117 116 122 123 124 127 133 136 135 145 158 160 165 167 179 179 184 202 229 258 196 7 1 8 16 20 1 346 2 3 336 329 335 334 331
256 256 262 283 297 301 292 306 131 164 140 120 120 118 104 104 110 117 119 116 121 129 141 154 157 159 169 177 176 183 177 194 199 214 242 138 347 353 5 351 334 336 343 342 329 324 330 328 325
264 272 273 275 278 276 284 289 132 124 105 96 105 110 103 103 103 104 111 109 110 108 124 144 159 174 172 172 169 179 173 177 185 196 243 140 36 337 358 341 331 324 348 341 327 320 326 321 320
Height
1488 1488 1489 1492 1491 1489 1483 1474 1469 1471 1472 1474 1474 1475 1479 1483 1489 1500 1501 1499 1499 1498 1497 1497 1497 1497 1496 1497 1497 1497 1498 1498 1498 1498 1498 1499 1499 1498 1497 1498 1498 1499 1501 1504 1507 1510 1512 1514 1515
1489 1491 1493 1493 1492 1493 1487 1474 1473 1474 1476 1476 1477 1480 1484 1489 1493 1498 1499 1500 1500 1500 1499 1499 1498 1498 1497 1497 1498 1498 1498 1499 1498 1497 1498 1499 1500 1500 1500 1500 1500 1501 1502 1505 1508 1510 1512 1513 1515
1490 1493 1494 1490 1488 1489 1486 1474 1474 1475 1477 1478 1481 1485 1489 1494 1497 1499 1501 1501 1501 1501 1500 1500 1500 1499 1499 1499 1499 1499 1499 1499 1499 1497 1497 1500 1502 1503 1503 1503 1504 1504 1506 1507 1509 1511 1512 1513 1515
1492 1493 1491 1488 1486 1480 1476 1474 1474 1476 1478 1480 1483 1489 1494 1498 1499 1501 1502 1502 1502 1502 1501 1501 1501 1500 1500 1500 1500 1500 1501 1501 1500 1500 1500 1502 1504 1504 1505 1506 1506 1507 1508 1509 1510 1511 1512 1513 1515
1492 1491 1490 1488 1482 1476 1473 1474 1476 1478 1480 1483 1486 1493 1498 1501 1501 1502 1502 1503 1503 1503 1503 1502 1502 1502 1502 1502 1502 1502 1502 1502 1502 1503 1503 1504 1506 1506 1507 1507 1508 1508 1509 1510 1511 1512 1512 1514 1515
1492 1489 1490 1489 1481 1475 1474 1476 1478 1480 1482 1485 1489 1494 1500 1502 1503 1503 1504 1504 1504 1504 1504 1504 1503 1503 1503 1503 1503 1504 1504 1504 1504 1505 1506 1506 1507 1508 1508 1509 1509 1510 1510 1511 1511 1512 1513 1514 1514
1491 1488 1487 1482 1480 1478 1476 1477 1478 1481 1483 1486 1489 1494 1501 1503 1504 1504 1505 1505 1506 1506 1506 1505 1505 1505 1505 1505 1505 1506 1506 1506 1506 1507 1508 1508 1509 1509 1510 1510 1511 1511 1511 1511 1512 1512 1513 1513 1514
1488 1486 1484 1480 1481 1481 1477 1478 1480 1482 1486 1489 1490 1494 1501 1504 1505 1506 1506 1506 1507 1507 1507 1507 1507 1507 1507 1507 1507 1507 1507 1508 1508 1509 1509 1510 1510 1511 1511 1512 1512 1512 1512 1512 1512 1512 1513 1513 1514
1486 1489 1489 1482 1479 1479 1477 1479 1482 1484 1488 1491 1493 1496 1501 1503 1505 1506 1507 1508 1508 1508 1509 1509 1509 1509 1509 1509 1508 1509 1509 1509 1510 1510 1511 1511 1512 1512 1512 1513 1513 1513 1513 1513 1513 1513 1513 1513 1514
1484 1489 1484 1476 1475 1477 1478 1479 1481 1485 1488 1493 1496 1500 1502 1504 1506 1507 1508 1508 1509 1509 1510 1510 1509 1510 1510 1510 1510 1510 1511 1511 1511 1511 1512 1512 1513 1514 1514 1513 1513 1513 1513 1513 1513 1513 1513 1513 1513
1482 1482 1478 1477 1476 1477 1479 1481 1483 1485 1489 1493 1497 1500 1503 1505 1506 1508 1509 1510 1510 1511 1511 1511 1511 1510 1511 1511 1511 1512 1512 1512 1512 1513 1513 1514 1514 1514 1514 1514 1514 1514 1513 1513 1513 1513 1513 1513 1513
1481 1480 1479 1479 1479 1479 1481 1483 1485 1488 1491 1495 1498 1501 1503 1505 1507 1508 1509 1510 1511 1511 1512 1512 1511 1511 1511 1511 1512 1513 1513 1513 1514 1514 1514 1514 1514 1514 1514 1514 1514 1514 1514 1514 1513 1513 1513 1513 1513
1481 1481 1480 1480 1480 1481 1482 1485 1487 1491 1494 1497 1499 1502 1504 1506 1507 1509 1510 1511 1511 1512 1512 1512 1512 1512 1512 1512 1512 1513 1514 1514 1514 1514 1514 1515 1515 1515 1515 1515 1514 1514 1513 1513 1513 1513 1512 1512 1512
1482 1481 1480 1480 1481 1482 1483 1485 1488 1492 1495 1498 1500 1503 1504 1506 1507 1509 1510 1511 1511 1512 1513 1513 1512 1512 1512 1512 1513 1514 1514 1515 1515 1515 1515 1515 1515 1515 1515 1515 1514 1514 1514 1513 1513 1512 1512 1512 1512
1482 1483 1481 1479 1479 1482 1484 1488 1488 1492 1495 1498 1500 1503 1504 1506 1508 1509 1510 1511 1512 1512 1513 1513 1513 1512 1513 1513 1513 1514 1515 1515 1515 1515 1515 1515 1515 1515 1515 1515 1514 1514 1514 1513 1513 1512 1512 1511 1511
1482 1486 1489 1479 1477 1480 1486 1495 1488 1491 1493 1496 1499 1502 1504 1506 1508 1509 1510 1511 1511 1512 1512 1513 1513 1513 1513 1513 1513 1514 1515 1515 1515 1515 1515 1515 1515 1515 1515 1515 1514 1514 1513 1513 1512 1512 1511 1511 1510
1487 1492 1489 1481 1474 1477 1482 1489 1486 1488 1490 1494 1497 1500 1503 1506 1508 1509 1510 1511 1511 1512 1512 1512 1513 1513 1513 1514 1514 1514 1515 1516 1516 1515 1515 1515 1515 1515 1515 1515 1514 1514 1513 1513 1512 1512 1511 1510 1510
1491 1488 1486 1483 1474 1475 1480 1483 1483 1485 1487 1490 1494 1497 1500 1504 1506 1508 1509 1510 1510 1511 1512 1512 1512 1513 1513 1514 1514 1514 1515 1516 1516 1515 1516 1515 1515 1515 1515 1514 1514 1514 1513 1512 1512 1511 1511 1510 1510
1480 1484 1486 1480 1472 1475 1479 1481 1480 1482 1484 1487 1491 1494 1498 1501 1505 1507 1508 1509 1509 1510 1511 1511 1512 1512 1513 1513 1514 1515 1515 1515 1515 1516 1516 1515 1515 1515 1515 1514 1514 1513 1513 1512 1511 1511 1511 1510 1510
1480 1485 1484 1478 1472 1474 1478 1480 1477 1478 1482 1485 1489 1492 1495 1499 1503 1505 1507 1509 1509 1509 1510 1511 1511 1512 1513 1513 1514 1515 1515 1516 1516 1516 1515 1515 1515 1515 1515 1514 1513 1513 1512 1512 1511 1511 1510 1510 1510
1481 1483 1484 1481 1475 1471 1478 1485 1480 1477 1480 1484 1487 1490 1493 1497 1500 1503 1506 1507 1508 1509 1509 1510 1511 1512 1513 1513 1514 1515 1515 1516 1516 1516 1515 1515 1515 1515 1514 1514 1513 1513 1512 1512 1511 1511 1510 1510 1510
1483 1474 1475 1477 1482 1485 1481 1499 1485 1479 1480 1482 1485 1488 1491 1494 1498 1501 1504 1506 1507 1508 1509 1510 1511 1511 1512 1513 1514 1514 1515 1515 1516 1516 1516 1515 1515 1514 1514 1514 1513 1512 1512 1512 1511 1511 1511 1510 1509
1475 1470 1471 1472 1478 1485 1480 1491 1489 1478 1483 1481 1483 1486 1489 1493 1495 1498 1501 1503 1505 1507 1508 1509 1510 1511 1512 1513 1513 1514 1515 1515 1516 1516 1516 1516 1515 1514 1514 1513 1513 1512 1512 1511 1511 1510 1510 1510 1509
1469 1470 1471 1472 1478 1497 1482 1488 1497 1482 1481 1480 1482 1485 1489 1491 1494 1497 1499 1502 1504 1506 1507 1508 1509 1510 1511 1512 1513 1514 1514 1515 1515 1515 1515 1515 1515 1514 1514 1513 1512 1512 1511 1511 1510 1510 1509 1509 1508
1470 1481 1496 1500 1499 1495 1474 1481 1488 1475 1474 1477 1481 1484 1488 1490 1493 1496 1498 1501 1503 1504 1506 1507 1508 1509 1510 1511 1512 1513 1514 1515 1515 1515 1515 1515 1515 1514 1513 1513 1512 1511 1511 1510 1510 1509 1509 1508 1508
1472 1479 1501 1513 1509 1493 1478 1486 1481 1472 1474 1476 1480 1484 1487 1490 1492 1495 1498 1500 1502 1504 1506 1507 1508 1509 1510 1511 1511 1512 1513 1514 1514 1515 1515 1515 1514 1513 1513 1512 1511 1510 1510 1510 1509 1509 1508 1507 1507
1473 1475 1472 1485 1488 1495 1490 1482 1475 1471 1474 1476 1480 1483 1486 1489 1492 1495 1497 1500 1501 1503 1505 1506 1507 1508 1509 1510 1511 1512 1512 1513 1513 1513 1514 1513 1513 1513 1512 1511 1510 1510 1509 1508 1508 1507 1507 1506 1506
1465 1468 1474 1486 1503 1510 1500 1494 1489 1479 1478 1477 1480 1483 1486 1489 1492 1494 1497 1499 1501 1502 1504 1505 1506 1507 1509 1509 1510 1511 1511 1512 1512 1512 1512 1512 1511 1511 1510 1510 1509 1509 1508 1507 1506 1506 1505 1505 1504
1466 1469 1472 1479 1485 1503 1509 1499 1476 1477 1476 1477 1479 1483 1486 1489 1492 1494 1497 1499 1501 1502 1503 1504 1505 1506 1507 1508 1509 1509 1510 1510 1511 1511 1510 1510 1510 1509 1509 1508 1508 1507 1506 1506 1505 1504 1504 1503 1502
1460 1463 1467 1484 1490 1487 1493 1494 1469 1472 1473 1477 1480 1483 1487 1489 1492 1495 1497 1499 1501 1502 1503 1503 1505 1506 1506 1507 1508 1508 1509 1509 1509 1509 1509 1509 1508 1508 1507 1507 1506 1506 1505 1504 1503 1502 1502 1501 1500